SCP
0 0 0 0 0 0 0 1 2 3 3 3 3 5 6 8 10 11 9 7 6 7 4 3 3 3 3 2 1 1 0 0 1 1 1 1 1 0 0 0 0 0 0
0 0 0 0 0 0 0 0 1 2 2 3 3 2 5 8 10 8 6 4 5 5 3 3 3 3 2 3 2 2 1 2 1 1 1 1 0 0 0 0 0 0 0
0 0 0 0 0 0 0 0 0 1 1 2 2 2 2 3 5 5 4 4 5 4 3 2 3 3 3 3 2 2 1 1 1 0 1 1 0 1 0 0 0 0 0
0 0 0 0 0 0 0 0 0 0 1 1 2 1 1 3 3 3 3 4 6 3 3 3 2 2 2 2 2 2 2 2 1 1 1 1 0 1 0 0 0 0 0
0 0 0 0 0 0 0 0 0 0 2 1 1 1 2 2 3 3 3 5 4 3 4 3 2 1 1 1 1 1 2 1 1 1 1 1 0 0 0 0 0 0 0
0 0 0 0 0 0 0 0 0 0 2 1 1 1 1 2 2 3 4 4 2 3 4 2 2 1 1 0 0 0 0 1 1 1 1 1 1 0 1 0 0 0 0
0 0 0 0 0 0 0 0 0 1 2 1 1 2 2 2 1 2 3 4 3 4 3 2 2 1 1 1 0 0 0 0 0 1 1 0 0 1 0 0 0 0 0
0 -0 0 0 0 0 0 0 0 1 1 1 1 2 3 5 0 1 2 3 3 3 3 2 1 1 0 0 0 0 0 0 0 0 0 1 1 1 0 0 0 0 0
0 0 0 0 0 0 0 1 1 1 2 1 2 2 3 3 0 1 2 3 3 2 1 1 1 1 0 0 0 0 0 0 0 0 0 0 0 0 0 0 0 0 0
0 0 0 0 0 0 0 0 1 1 2 2 2 2 3 3 0 0 2 2 2 2 1 1 0 1 0 0 0 0 0 0 0 0 0 0 0 0 0 0 0 0 0
-0 0 0 0 0 0 0 0 0 0 3 2 2 3 5 2 0 0 0 3 2 1 1 1 1 0 0 0 0 0 0 0 0 0 0 0 0 0 0 0 0 0 0
-0 -0 -0 0 -0 0 -0 -0 -0 1 1 2 2 4 5 2 0 0 0 1 0 1 0 1 0 0 0 0 0 0 0 0 0 0 0 0 0 0 0 0 0 0 0
-0 -0 -0 0 -0 -0 -0 -0 0 1 2 3 4 5 2 2 0 0 0 0 0 1 1 0 0 0 0 0 0 0 0 0 0 0 0 0 0 0 0 0 0 0 0
0 -0 0 -0 -0 0 -0 0 1 2 3 4 3 2 1 2 1 1 0 0 0 0 0 0 0 0 0 0 0 0 0 0 0 0 0 0 0 0 0 0 0 0 0
-0 -0 -0 -0 0 -0 0 1 2 2 3 2 2 2 2 1 1 1 1 0 0 0 0 0 0 0 0 0 0 0 0 0 0 0 0 0 0 0 0 0 0 0 0
0 0 0 0 0 0 0 0 0 0 0 1 2 2 2 0 0 0 0 0 0 0 0 0 0 0 0 0 0 0 0 0 0 0 0 0 0 -0 -0 0 0 0 0
0 0 0 0 0 0 0 0 0 0 0 0 0 0 0 0 0 0 0 0 0 0 0 0 0 0 0 0 0 0 0 0 0 0 0 0 0 0 0 0 0 0 0
0 0 0 0 0 0 0 0 0 0 0 0 0 0 0 0 0 0 0 0 0 0 0 0 0 0 0 0 0 0 0 0 0 0 0 0 0 0 0 0 0 0 0
0 0 0 0 0 0 0 0 0 0 0 0 0 0 0 0 0 0 0 0 0 0 0 0 0 0 0 -0 0 0 0 0 0 0 0 0 0 0 0 0 0 0 0
0 0 0 0 0 0 0 0 0 0 0 0 0 0 0 0 0 0 0 0 0 0 0 0 0 0 0 -0 0 0 0 0 0 0 0 0 0 0 0 0 0 0 0
0 0 0 0 0 0 0 0 0 0 0 0 0 0 0 0 0 0 0 0 0 0 0 0 0 0 -0 -0 0 0 0 0 0 0 0 0 0 0 -0 0 0 0 0
0 0 0 0 0 0 0 0 0 0 0 0 0 0 0 0 0 0 0 0 0 0 0 0 0 -0 0 0 0 0 0 0 0 0 0 0 0 0 0 0 0 0 0
0 0 0 0 0 0 0 0 0 0 0 0 0 0 0 0 0 0 0 0 0 0 0 0 0 0 0 0 0 0 0 0 0 0 0 0 0 0 0 0 0 0 0
0 0 0 0 0 0 0 0 0 0 0 0 0 0 0 0 0 0 0 0 0 0 0 0 0 0 0 0 0 0 0 0 0 0 0 0 0 0 0 0 0 0 0
0 0 0 0 0 0 0 0 0 0 0 0 0 0 0 0 0 0 0 0 0 0 0 0 0 0 0 -0 0 0 0 0 0 0 0 0 0 0 0 0 0 0 0
0 0 0 0 0 0 0 0 0 0 0 0 0 0 0 0 0 0 0 0 0 -0 -0 0 0 -0 0 0 -0 0 0 -0 -0 -0 -0 0 0 0 0 0 0 0 0
Wind_Speed_500mb
36 35 35 35 38 41 44 49 52 56 66 76 81 69 72 64 67 76 76 67 63 59 46 44 52 46 40 40 39 32 31 30 28 17 10 21 32 32 28 28 30 22 29
40 41 43 44 44 46 48 49 56 61 64 65 65 70 73 70 73 76 71 58 58 47 46 48 50 42 49 44 38 34 31 31 32 29 21 20 23 23 22 23 25 19 24
39 44 50 56 54 54 56 55 54 54 57 61 61 61 63 66 68 70 69 61 55 49 47 56 48 48 48 47 41 32 33 32 28 35 21 21 18 21 25 21 24 22 21
45 46 52 56 63 65 60 59 60 59 55 63 65 65 68 66 68 62 58 59 56 47 57 52 45 48 49 43 35 36 31 30 34 30 26 23 21 24 23 24 22 20 19
57 59 57 59 62 67 71 66 59 64 55 63 66 69 72 70 70 67 65 61 59 54 55 47 48 44 41 33 30 35 33 35 32 34 31 27 23 23 30 25 18 23 21
63 69 70 64 64 69 73 71 64 63 58 64 71 74 75 76 77 75 68 63 62 55 54 46 42 45 43 45 42 37 37 41 38 33 31 38 30 28 29 27 21 25 20
74 78 72 66 68 69 68 70 72 65 61 71 74 75 78 82 79 78 70 68 60 57 51 48 44 37 47 41 42 45 41 38 38 36 32 32 32 31 28 31 27 21 15
81 80 75 71 73 72 69 72 72 65 67 74 79 79 80 84 76 76 81 57 55 49 49 52 51 38 36 32 29 38 39 34 40 39 35 38 37 33 31 33 31 30 27
86 84 88 75 70 73 69 67 69 64 72 80 80 80 80 81 79 81 81 52 48 47 43 40 39 34 34 40 32 29 28 33 34 35 38 38 37 36 31 36 34 31 23
83 75 79 73 73 71 65 63 63 72 74 79 83 80 79 85 83 77 71 47 50 44 39 35 40 35 37 35 35 29 32 29 35 35 33 26 27 32 31 32 31 31 23
79 85 80 75 69 67 63 69 65 70 75 81 81 77 75 79 77 75 66 52 47 45 38 33 38 46 36 30 35 32 30 30 30 25 29 26 25 27 28 28 24 25 39
68 72 70 68 66 64 71 76 74 63 84 80 76 72 71 69 79 77 67 51 46 43 36 35 35 39 35 30 34 34 30 30 26 25 27 26 28 29 30 27 22 21 20
69 71 80 81 78 91 76 75 73 77 78 74 79 83 72 87 88 84 66 52 46 41 40 39 36 33 35 34 35 30 25 24 24 28 27 24 24 29 29 32 20 23 14
74 77 78 80 63 65 88 77 75 78 89 79 85 77 76 92 92 83 72 55 58 44 33 37 33 33 34 35 34 32 28 28 25 24 26 26 26 24 22 28 33 29 29
67 73 71 103 126 99 91 77 88 87 87 72 68 79 94 95 95 79 73 52 41 36 42 34 34 36 36 34 32 32 29 27 30 27 22 26 25 19 19 27 30 24 25
66 60 66 51 57 100 91 82 77 69 65 64 71 75 67 78 74 66 62 49 46 39 30 29 36 39 37 35 33 30 26 21 19 22 24 23 27 25 19 18 23 23 20
48 50 39 16 46 66 74 78 75 66 70 64 72 59 57 56 68 60 55 49 43 36 28 31 36 40 35 34 35 29 25 22 21 23 30 29 24 28 27 23 26 26 17
40 31 8 16 35 58 65 73 78 84 75 63 54 51 53 47 55 54 50 44 48 38 27 28 34 38 40 38 31 27 28 24 25 23 24 24 27 29 30 24 17 19 17
26 18 21 46 52 69 76 67 69 66 70 73 57 51 48 49 51 46 45 38 38 31 28 29 34 39 44 37 29 28 25 25 24 23 25 23 24 26 25 23 20 21 20
20 15 55 57 54 68 65 63 64 57 58 60 64 61 58 56 53 50 47 37 35 28 30 31 34 36 45 30 30 25 26 21 21 21 22 21 17 19 21 26 23 17 20
20 38 52 57 53 67 63 59 55 58 52 45 63 56 54 53 54 45 29 37 30 30 30 28 34 37 42 31 32 24 21 19 19 20 19 18 15 15 17 17 12 26 25
31 39 53 54 57 59 55 51 55 56 50 53 53 57 43 42 32 31 30 25 27 34 33 33 29 35 36 30 26 26 22 19 17 14 17 16 15 15 13 18 20 16 14
44 39 42 47 49 53 59 54 56 61 51 55 51 44 35 35 42 42 42 40 36 38 39 40 35 33 27 30 24 22 19 16 17 17 18 18 14 10 13 14 16 15 17
53 49 50 47 51 57 52 55 58 53 60 57 51 51 49 44 38 40 39 34 33 37 40 38 35 37 33 27 29 28 26 24 18 16 14 15 16 17 16 15 14 18 18
51 49 51 53 52 56 61 64 58 53 61 63 57 48 40 36 37 37 36 35 35 39 40 37 39 38 36 29 23 19 19 16 13 13 12 13 14 14 13 13 14 16 18
52 53 50 58 57 65 70 70 62 70 73 65 52 41 47 43 39 36 34 36 36 35 36 33 29 28 29 28 20 22 19 15 12 11 14 12 12 11 14 15 10 8 5
Wind_Direction_500mb
282 280 280 276 271 269 267 263 253 264 265 251 248 241 248 243 227 234 237 234 230 233 232 223 228 221 224 223 218 226 238 243 249 251 207 232 251 256 245 248 244 245 250
284 286 282 280 276 270 267 268 266 258 262 258 258 256 238 231 231 234 229 217 223 219 218 217 217 220 214 213 214 225 233 242 239 252 231 241 258 253 258 262 249 231 237
287 282 284 282 278 273 269 272 269 266 260 254 243 242 235 226 224 224 219 206 212 207 216 212 216 213 214 218 207 224 233 239 243 243 247 227 244 243 241 235 250 246 238
287 286 282 278 277 276 270 269 271 266 257 251 238 234 225 223 217 213 207 204 206 209 212 215 211 214 214 215 213 218 224 229 229 235 232 219 236 233 232 242 241 229 220
284 288 281 276 272 272 270 265 266 266 253 249 234 231 223 217 212 207 205 200 206 206 210 210 211 210 212 211 214 226 223 224 232 233 240 225 228 223 224 230 227 214 222
284 285 284 275 269 266 264 265 265 265 250 243 231 227 220 215 211 206 199 197 203 202 202 203 205 210 204 212 216 217 216 223 227 230 238 235 233 231 223 217 212 202 212
282 287 281 272 270 262 257 259 262 259 246 237 228 222 216 210 206 205 195 200 197 197 206 200 197 203 215 221 222 221 229 235 234 232 235 242 241 222 226 212 210 211 208
284 282 275 274 270 262 254 252 255 255 241 228 222 216 207 201 200 203 198 192 194 203 200 201 196 204 221 205 214 220 227 239 242 244 248 246 239 241 240 216 205 197 214
283 278 275 278 260 261 253 251 248 249 231 221 215 205 199 194 199 201 190 188 185 188 193 193 196 205 226 206 205 217 220 228 238 243 244 256 248 239 225 210 192 198 209
280 276 276 267 266 263 253 256 248 240 224 217 205 197 193 196 197 193 178 176 182 181 180 193 203 202 214 211 209 216 222 226 238 249 242 235 231 223 213 206 210 205 202
280 282 280 271 267 265 256 257 242 226 220 206 196 189 190 200 187 179 172 177 179 177 179 193 204 198 211 211 207 215 219 237 240 217 222 229 216 208 194 195 210 218 221
277 272 270 269 271 265 269 247 230 230 208 192 186 183 188 189 175 170 169 174 174 176 184 192 203 206 210 214 209 219 228 223 231 216 210 203 204 200 193 196 205 210 208
277 274 272 272 272 268 248 228 240 198 191 179 169 171 178 171 169 170 171 169 172 176 185 186 204 206 206 210 215 216 211 209 204 204 201 202 213 211 202 195 195 179 174
280 282 279 283 259 230 224 238 201 182 175 168 174 167 164 167 167 169 172 169 177 180 186 198 213 198 203 208 204 203 202 207 212 210 218 215 203 202 208 208 216 220 223
279 279 276 258 231 251 234 182 170 177 172 165 170 168 169 169 171 174 174 174 170 179 193 202 195 195 199 197 200 204 201 198 198 189 188 200 194 187 207 212 212 211 211
273 289 314 113 151 146 153 154 161 161 164 169 169 161 162 169 170 174 172 171 178 194 182 180 194 197 194 196 192 181 183 185 189 197 203 207 203 191 193 197 209 212 207
297 305 336 103 132 142 146 147 147 143 155 155 152 153 159 169 175 175 178 182 185 175 174 198 197 197 189 184 173 171 169 185 200 207 205 195 192 198 194 213 218 221 221
294 302 311 164 146 141 145 143 139 136 136 140 148 157 166 170 172 175 179 179 171 169 182 197 192 187 184 181 170 177 173 176 176 181 178 186 196 198 199 192 207 220 218
269 262 159 150 143 142 135 131 130 134 145 149 151 159 164 164 170 175 175 169 171 182 184 187 188 187 184 178 176 177 164 171 176 176 186 196 200 206 210 212 213 216 236
228 196 157 144 141 140 134 133 133 132 139 146 154 157 157 163 162 163 164 172 172 182 188 186 187 185 182 172 173 170 173 171 170 173 179 183 185 204 215 217 221 232 233
176 145 153 158 144 140 140 140 139 140 142 145 154 156 157 160 160 159 168 170 168 179 176 179 178 175 180 185 190 181 179 173 179 180 184 191 199 213 208 221 237 228 235
167 148 158 148 145 141 145 144 140 139 139 141 145 143 144 156 157 161 162 167 177 184 179 168 165 176 171 174 178 182 175 178 174 184 192 195 206 203 200 211 223 240 238
171 170 161 150 150 149 142 138 136 136 138 137 141 144 141 149 156 162 166 160 171 176 176 175 173 162 169 170 168 177 174 172 178 178 184 185 188 188 207 205 225 240 251
168 170 153 148 149 145 139 139 135 138 141 142 141 149 154 154 164 164 167 168 171 174 176 176 176 173 158 163 160 168 167 164 167 164 175 181 194 215 238 237 246 270 249
152 153 147 146 141 142 142 141 139 144 142 148 148 156 163 158 155 160 165 165 165 168 171 174 182 180 183 180 173 174 168 174 192 189 203 220 237 240 252 257 277 259 276
143 141 140 155 154 152 150 151 153 152 156 157 156 151 152 153 152 153 157 163 167 167 173 175 179 188 197 200 201 187 189 200 207 231 252 256 234 258 236 258 251 240 222
Wind_Speed_850mb
36 35 35 35 38 41 44 49 52 56 66 76 81 69 72 64 67 76 76 67 63 59 46 44 52 46 40 40 39 32 31 30 28 17 10 21 32 32 28 28 30 22 29
40 41 43 44 44 46 48 49 56 61 64 65 65 70 73 70 73 76 71 58 58 47 46 48 50 42 49 44 38 34 31 31 32 29 21 20 23 23 22 23 25 19 24
39 44 50 56 54 54 56 55 54 54 57 61 61 61 63 66 68 70 69 61 55 49 47 56 48 48 48 47 41 32 33 32 28 35 21 21 18 21 25 21 24 22 21
45 46 52 56 63 65 60 59 60 59 55 63 65 65 68 66 68 62 58 59 56 47 57 52 45 48 49 43 35 36 31 30 34 30 26 23 21 24 23 24 22 20 19
57 59 57 59 62 67 71 66 59 64 55 63 66 69 72 70 70 67 65 61 59 54 55 47 48 44 41 33 30 35 33 35 32 34 31 27 23 23 30 25 18 23 21
63 69 70 64 64 69 73 71 64 63 58 64 71 74 75 76 77 75 68 63 62 55 54 46 42 45 43 45 42 37 37 41 38 33 31 38 30 28 29 27 21 25 20
74 78 72 66 68 69 68 70 72 65 61 71 74 75 78 82 79 78 70 68 60 57 51 48 44 37 47 41 42 45 41 38 38 36 32 32 32 31 28 31 27 21 15
81 80 75 71 73 72 69 72 72 65 67 74 79 79 80 84 76 76 81 57 55 49 49 52 51 38 36 32 29 38 39 34 40 39 35 38 37 33 31 33 31 30 27
86 84 88 75 70 73 69 67 69 64 72 80 80 80 80 81 79 81 81 52 48 47 43 40 39 34 34 40 32 29 28 33 34 35 38 38 37 36 31 36 34 31 23
83 75 79 73 73 71 65 63 63 72 74 79 83 80 79 85 83 77 71 47 50 44 39 35 40 35 37 35 35 29 32 29 35 35 33 26 27 32 31 32 31 31 23
79 85 80 75 69 67 63 69 65 70 75 81 81 77 75 79 77 75 66 52 47 45 38 33 38 46 36 30 35 32 30 30 30 25 29 26 25 27 28 28 24 25 39
68 72 70 68 66 64 71 76 74 63 84 80 76 72 71 69 79 77 67 51 46 43 36 35 35 39 35 30 34 34 30 30 26 25 27 26 28 29 30 27 22 21 20
69 71 80 81 78 91 76 75 73 77 78 74 79 83 72 87 88 84 66 52 46 41 40 39 36 33 35 34 35 30 25 24 24 28 27 24 24 29 29 32 20 23 14
74 77 78 80 63 65 88 77 75 78 89 79 85 77 76 92 92 83 72 55 58 44 33 37 33 33 34 35 34 32 28 28 25 24 26 26 26 24 22 28 33 29 29
67 73 71 103 126 99 91 77 88 87 87 72 68 79 94 95 95 79 73 52 41 36 42 34 34 36 36 34 32 32 29 27 30 27 22 26 25 19 19 27 30 24 25
66 60 66 51 57 100 91 82 77 69 65 64 71 75 67 78 74 66 62 49 46 39 30 29 36 39 37 35 33 30 26 21 19 22 24 23 27 25 19 18 23 23 20
48 50 39 16 46 66 74 78 75 66 70 64 72 59 57 56 68 60 55 49 43 36 28 31 36 40 35 34 35 29 25 22 21 23 30 29 24 28 27 23 26 26 17
40 31 8 16 35 58 65 73 78 84 75 63 54 51 53 47 55 54 50 44 48 38 27 28 34 38 40 38 31 27 28 24 25 23 24 24 27 29 30 24 17 19 17
26 18 21 46 52 69 76 67 69 66 70 73 57 51 48 49 51 46 45 38 38 31 28 29 34 39 44 37 29 28 25 25 24 23 25 23 24 26 25 23 20 21 20
20 15 55 57 54 68 65 63 64 57 58 60 64 61 58 56 53 50 47 37 35 28 30 31 34 36 45 30 30 25 26 21 21 21 22 21 17 19 21 26 23 17 20
20 38 52 57 53 67 63 59 55 58 52 45 63 56 54 53 54 45 29 37 30 30 30 28 34 37 42 31 32 24 21 19 19 20 19 18 15 15 17 17 12 26 25
31 39 53 54 57 59 55 51 55 56 50 53 53 57 43 42 32 31 30 25 27 34 33 33 29 35 36 30 26 26 22 19 17 14 17 16 15 15 13 18 20 16 14
44 39 42 47 49 53 59 54 56 61 51 55 51 44 35 35 42 42 42 40 36 38 39 40 35 33 27 30 24 22 19 16 17 17 18 18 14 10 13 14 16 15 17
53 49 50 47 51 57 52 55 58 53 60 57 51 51 49 44 38 40 39 34 33 37 40 38 35 37 33 27 29 28 26 24 18 16 14 15 16 17 16 15 14 18 18
51 49 51 53 52 56 61 64 58 53 61 63 57 48 40 36 37 37 36 35 35 39 40 37 39 38 36 29 23 19 19 16 13 13 12 13 14 14 13 13 14 16 18
52 53 50 58 57 65 70 70 62 70 73 65 52 41 47 43 39 36 34 36 36 35 36 33 29 28 29 28 20 22 19 15 12 11 14 12 12 11 14 15 10 8 5
Wind_Direction_850mb
282 280 280 276 271 269 267 263 253 264 265 251 248 241 248 243 227 234 237 234 230 233 232 223 228 221 224 223 218 226 238 243 249 251 207 232 251 256 245 248 244 245 250
284 286 282 280 276 270 267 268 266 258 262 258 258 256 238 231 231 234 229 217 223 219 218 217 217 220 214 213 214 225 233 242 239 252 231 241 258 253 258 262 249 231 237
287 282 284 282 278 273 269 272 269 266 260 254 243 242 235 226 224 224 219 206 212 207 216 212 216 213 214 218 207 224 233 239 243 243 247 227 244 243 241 235 250 246 238
287 286 282 278 277 276 270 269 271 266 257 251 238 234 225 223 217 213 207 204 206 209 212 215 211 214 214 215 213 218 224 229 229 235 232 219 236 233 232 242 241 229 220
284 288 281 276 272 272 270 265 266 266 253 249 234 231 223 217 212 207 205 200 206 206 210 210 211 210 212 211 214 226 223 224 232 233 240 225 228 223 224 230 227 214 222
284 285 284 275 269 266 264 265 265 265 250 243 231 227 220 215 211 206 199 197 203 202 202 203 205 210 204 212 216 217 216 223 227 230 238 235 233 231 223 217 212 202 212
282 287 281 272 270 262 257 259 262 259 246 237 228 222 216 210 206 205 195 200 197 197 206 200 197 203 215 221 222 221 229 235 234 232 235 242 241 222 226 212 210 211 208
284 282 275 274 270 262 254 252 255 255 241 228 222 216 207 201 200 203 198 192 194 203 200 201 196 204 221 205 214 220 227 239 242 244 248 246 239 241 240 216 205 197 214
283 278 275 278 260 261 253 251 248 249 231 221 215 205 199 194 199 201 190 188 185 188 193 193 196 205 226 206 205 217 220 228 238 243 244 256 248 239 225 210 192 198 209
280 276 276 267 266 263 253 256 248 240 224 217 205 197 193 196 197 193 178 176 182 181 180 193 203 202 214 211 209 216 222 226 238 249 242 235 231 223 213 206 210 205 202
280 282 280 271 267 265 256 257 242 226 220 206 196 189 190 200 187 179 172 177 179 177 179 193 204 198 211 211 207 215 219 237 240 217 222 229 216 208 194 195 210 218 221
277 272 270 269 271 265 269 247 230 230 208 192 186 183 188 189 175 170 169 174 174 176 184 192 203 206 210 214 209 219 228 223 231 216 210 203 204 200 193 196 205 210 208
277 274 272 272 272 268 248 228 240 198 191 179 169 171 178 171 169 170 171 169 172 176 185 186 204 206 206 210 215 216 211 209 204 204 201 202 213 211 202 195 195 179 174
280 282 279 283 259 230 224 238 201 182 175 168 174 167 164 167 167 169 172 169 177 180 186 198 213 198 203 208 204 203 202 207 212 210 218 215 203 202 208 208 216 220 223
279 279 276 258 231 251 234 182 170 177 172 165 170 168 169 169 171 174 174 174 170 179 193 202 195 195 199 197 200 204 201 198 198 189 188 200 194 187 207 212 212 211 211
273 289 314 113 151 146 153 154 161 161 164 169 169 161 162 169 170 174 172 171 178 194 182 180 194 197 194 196 192 181 183 185 189 197 203 207 203 191 193 197 209 212 207
297 305 336 103 132 142 146 147 147 143 155 155 152 153 159 169 175 175 178 182 185 175 174 198 197 197 189 184 173 171 169 185 200 207 205 195 192 198 194 213 218 221 221
294 302 311 164 146 141 145 143 139 136 136 140 148 157 166 170 172 175 179 179 171 169 182 197 192 187 184 181 170 177 173 176 176 181 178 186 196 198 199 192 207 220 218
269 262 159 150 143 142 135 131 130 134 145 149 151 159 164 164 170 175 175 169 171 182 184 187 188 187 184 178 176 177 164 171 176 176 186 196 200 206 210 212 213 216 236
228 196 157 144 141 140 134 133 133 132 139 146 154 157 157 163 162 163 164 172 172 182 188 186 187 185 182 172 173 170 173 171 170 173 179 183 185 204 215 217 221 232 233
176 145 153 158 144 140 140 140 139 140 142 145 154 156 157 160 160 159 168 170 168 179 176 179 178 175 180 185 190 181 179 173 179 180 184 191 199 213 208 221 237 228 235
167 148 158 148 145 141 145 144 140 139 139 141 145 143 144 156 157 161 162 167 177 184 179 168 165 176 171 174 178 182 175 178 174 184 192 195 206 203 200 211 223 240 238
171 170 161 150 150 149 142 138 136 136 138 137 141 144 141 149 156 162 166 160 171 176 176 175 173 162 169 170 168 177 174 172 178 178 184 185 188 188 207 205 225 240 251
168 170 153 148 149 145 139 139 135 138 141 142 141 149 154 154 164 164 167 168 171 174 176 176 176 173 158 163 160 168 167 164 167 164 175 181 194 215 238 237 246 270 249
152 153 147 146 141 142 142 141 139 144 142 148 148 156 163 158 155 160 165 165 165 168 171 174 182 180 183 180 173 174 168 174 192 189 203 220 237 240 252 257 277 259 276
143 141 140 155 154 152 150 151 153 152 156 157 156 151 152 153 152 153 157 163 167 167 173 175 179 188 197 200 201 187 189 200 207 231 252 256 234 258 236 258 251 240 222